Weather History for Ft Pierce, FL

Change the Weather History Date:

Thursday, December 13, 2012

  Actual Average Record
Temperature  
Mean Temperature 66 °F -  
Max Temperature 73 °F 76 °F 86 °F (1947)
Min Temperature 60 °F 56 °F 24 °F (1962)
Cooling Degree Days 2    
Growing Degree Days 16 (Base 50)    
Moisture  
Dew Point 67 °F    
Average Humidity 90    
Maximum Humidity 100    
Minimum Humidity 75    
Precipitation  
Precipitation 0.00 in - - ()
Sea Level Pressure  
Sea Level Pressure 30.08 in    
Wind  
Wind Speed 5 mph (NW)    
Max Wind Speed 13 mph    
Max Gust Speed 21 mph    
Visibility 8 miles    
Events Rain    
Averages and records for this station are not official NWS values.
T = Trace of Precipitation, MM = Missing Value Source: NWS Daily Summary

Daily Weather History Graph

Daily Weather History Graph

Search for Another Location

Airport:

Trip Planner

Search our weather history database for the weather conditions in past years. The results will help you decide how hot, cold, wet, or windy it might be!

Date:

Astronomy

Dec. 13, 2012 Rise Set
Actual Time 7:03 AM EST 5:28 PM EST
Civil Twilight 6:37 AM EST 5:54 PM EST
Nautical Twilight 6:08 AM EST 6:23 PM EST
Astronomical Twilight 5:39 AM EST 6:51 PM EST
Moon 7:11 AM EST (12/13) 6:07 PM EST (12/13)
Length of Visible Light 11h 16m
Length of Day
10h 25m
New Moon, 0% of the Moon is Illuminated
Dec 13
New Moon
Dec 20
First Quarter
Dec 28
Full
Jan 4
Last Quarter
Jan 11
New

Hourly Weather History & Observations

Time (EST) Temp. Dew Point Humidity Pressure Visibility Wind Dir Wind Speed Gust Speed Precip Events Conditions
12:22 AM 73.4 °F 71.6 °F 94% 30.05 in 8.0 mi Calm Calm - N/A   Scattered Clouds
12:34 AM 71.6 °F 71.6 °F 100% 30.05 in 7.0 mi SW 3.5 mph - N/A   Mostly Cloudy
12:49 AM 71.6 °F 71.6 °F 100% 30.04 in 7.0 mi Calm Calm - N/A   Scattered Clouds
12:53 AM 72.0 °F 71.1 °F 97% 30.04 in 7.0 mi Calm Calm - N/A   Scattered Clouds
1:18 AM 71.6 °F 69.8 °F 94% 30.04 in 4.0 mi Calm Calm - N/A   Mostly Cloudy
1:26 AM 71.6 °F 69.8 °F 94% 30.04 in 5.0 mi Calm Calm - N/A   Mostly Cloudy
1:53 AM 73.0 °F 71.1 °F 93% 30.04 in 6.0 mi SW 3.5 mph - N/A   Overcast
2:36 AM 73.4 °F 71.6 °F 94% 30.03 in 7.0 mi WSW 6.9 mph - N/A   Overcast
2:53 AM 73.0 °F 72.0 °F 96% 30.03 in 6.0 mi SW 5.8 mph - N/A   Overcast
3:18 AM 73.4 °F 71.6 °F 94% 30.03 in 6.0 mi WSW 3.5 mph - N/A   Overcast
3:31 AM 73.4 °F 71.6 °F 94% 30.02 in 6.0 mi West 3.5 mph - N/A   Overcast
3:53 AM 73.9 °F 72.0 °F 93% 30.03 in 6.0 mi West 5.8 mph - N/A   Overcast
4:32 AM 73.4 °F 71.6 °F 94% 30.03 in 6.0 mi West 4.6 mph - N/A   Overcast
4:53 AM 73.0 °F 71.1 °F 93% 30.03 in 7.0 mi West 5.8 mph - N/A   Overcast
5:14 AM 73.4 °F 71.6 °F 94% 30.04 in 6.0 mi WNW 5.8 mph - 0.00 in Rain Light Rain
5:53 AM 72.0 °F 70.0 °F 93% 30.05 in 8.0 mi NW 10.4 mph - 0.00 in   Overcast
6:02 AM 71.6 °F 69.8 °F 94% 30.06 in 7.0 mi NNW 6.9 mph - N/A   Overcast
6:18 AM 71.6 °F 69.8 °F 94% 30.06 in 8.0 mi NW 6.9 mph - N/A   Overcast
6:31 AM 71.6 °F 69.8 °F 94% 30.06 in 8.0 mi NW 6.9 mph - N/A   Overcast
6:46 AM 69.8 °F 68.0 °F 94% 30.07 in 8.0 mi NW 9.2 mph - N/A   Overcast
6:53 AM 70.0 °F 68.0 °F 93% 30.07 in 8.0 mi NW 6.9 mph - N/A   Overcast
7:10 AM 69.8 °F 68.0 °F 94% 30.08 in 8.0 mi NW 5.8 mph - N/A   Overcast
7:53 AM 68.0 °F 66.0 °F 93% 30.09 in 9.0 mi NNW 9.2 mph 16.1 mph N/A   Overcast
8:53 AM 69.1 °F 64.9 °F 87% 30.11 in 10.0 mi NNW 6.9 mph - N/A   Overcast
9:53 AM 69.1 °F 64.0 °F 84% 30.13 in 10.0 mi NNW 10.4 mph 16.1 mph N/A   Overcast
10:00 AM 69.8 °F 64.4 °F 83% 30.13 in 10.0 mi NNW 10.4 mph 16.1 mph N/A   Overcast
10:53 AM 70.0 °F 63.0 °F 78% 30.14 in 10.0 mi North 6.9 mph 17.3 mph N/A   Overcast
11:01 AM 69.8 °F 62.6 °F 78% 30.14 in 10.0 mi North 11.5 mph 17.3 mph N/A   Overcast
11:53 AM 68.0 °F 63.0 °F 84% 30.14 in 10.0 mi NNW 9.2 mph - N/A   Overcast
12:53 PM 69.1 °F 62.1 °F 78% 30.12 in 10.0 mi North 10.4 mph 16.1 mph N/A   Overcast
1:53 PM 68.0 °F 61.0 °F 78% 30.12 in 10.0 mi North 10.4 mph 17.3 mph N/A   Overcast
2:53 PM 69.1 °F 61.0 °F 75% 30.11 in 10.0 mi NNW 12.7 mph 19.6 mph N/A   Overcast
3:53 PM 68.0 °F 61.0 °F 78% 30.10 in 10.0 mi North 12.7 mph 20.7 mph N/A   Overcast
7:53 PM 66.2 °F 60.8 °F 83% 30.13 in 10.0 mi NNW 6.9 mph - N/A   Overcast
8:53 PM 66.9 °F 61.0 °F 81% 30.13 in 10.0 mi NNW 10.4 mph 17.3 mph N/A   Overcast
9:53 PM 64.0 °F 60.1 °F 87% 30.14 in 10.0 mi WNW 6.9 mph - N/A   Overcast
10:53 PM 61.0 °F 57.9 °F 90% 30.14 in 9.0 mi WNW 6.9 mph - N/A   Overcast
11:07 PM 60.8 °F 57.2 °F 88% 30.13 in 9.0 mi WNW 5.8 mph - N/A   Overcast
11:53 PM 61.0 °F 57.9 °F 90% 30.12 in 8.0 mi WNW 6.9 mph - 0.00 in   Overcast